Location: Cuiry
(49.3858°N, 3.7708°E)
Time: 23:53:56
(UTC+00:00)

Cosmos 1869 Rocket - Pass Details

Date: 12 January 2026
Orbit: 597 x 626 km, 82.5° (Epoch: 17 February)

Event Time Altitude Azimuth Distance (km) Brightness Sun altitude
Rises 18:13:09 0° 353° (N) 2,915 7.0 -19.3°
Reaches altitude 10° 18:15:27 10° 359° (N) 1,999 6.1 -19.7°
Enters shadow 18:19:33 51° 64° (ENE) 778 3.6 -20.4°
